Back to catalog

STARLINK-35908

AliveCommunicationsVLEO
NORAD 66639·PAYLOAD·🇺🇸 United States

Launched Nov 23, 2025 from Vandenberg Space Force Base

Loading…

Next Passes (next 24 hours)

TLE

FreshSource: CelesTrak SupGP

Epoch: Sep 15, 2026, 03:30 UTC

1 66639C 25271Y   26258.14631944  .00060033  00000+0  17717-2 0  2586
2 66639  53.1583 338.8357 0001162 106.4904  76.6729 15.34395897    10

Track STARLINK-35908 in real time with AllMySat

Download on the App Store